Weather in Lopshen'ga

Russia / Arkhangel'skaya Oblast'     64°58′21″N   37°41′24″E
temp.,
°C
wind,
m/s
gust,
m/s
humid.,
%
clouds,
%
prec.,
mm/h
press.,
hPa
HPBL,
m
13 may, thu
thu1300:00+12ssw47660 0.0 102090
03:00+12ssw48660 0.0 101992
06:00+13ssw48610 0.0 1018156
09:00+18sw47510 0.0 1017364
12:00+20sw47450 0.0 1017954
15:00+20wsw36460 0.0 10161224
18:00+19sw144834 0.0 10151337
21:00+16sse23604 0.0 101417
14 may, fri
fri1400:00+14s33641 0.0 101424
03:00+13ssw226562 0.0 101311
06:00+14ssw116498 0.0 101222
09:00+16e22639 0.2 1011341
12:00+14ene347692 2.6 1011179
15:00+10ene4484100 6.4 1012134
18:00+7ne3496100 2.8 1012143
21:00+5ne2297100 4.3 101362
15 may, sat
sat1500:00+5nne229755 0.1 101337
03:00+5nne229889 0.1 101346
06:00+5n3398100 0.0 101396
09:00+5nne349594 0.0 1014157
12:00+5nne449167 0.0 1013165
15:00+6nne568988 0.0 1013216
18:00+4nne5894100 0.0 1011207
21:00+3nne479797 0.0 1009199
16 may, sun
sun1600:00+3nne5997100 0.0 1007173
03:00+3ne61098100 0.0 1006179
06:00+3ne61197100 0.0 1005221
09:00+3ne71196100 0.1 1006280
12:00+3ne51095100 0.0 1008346
15:00+3ne589198 0.0 1010351
18:00+3ne458992 0.0 1012319
21:00+2ene2393100 0.0 1012182
17 may, mon
mon1700:00+3nne1193100 0.6 101363
03:00+3ssw119529 0.6 101410
06:00+5wsw2389100 0.0 1015121
09:00+8wsw1279100 0.0 1016231
12:00+12sse1567100 0.1 1015952
15:00+10ne3381100 1.0 1016185
18:00+9e238291 0.3 1017106
21:00+7ne229236 0.3 101833